IUS R/B(2), 22316

Orbit data source: Space-Track

IUS R/B(2), 22316 is space debris in GEO originally from a launch on Wed, 13 Jan 1993 UTC launched from the Air Force Eastern Test Range (AFETR). Debris objects in space refer to the collection of defunct objects orbiting the Earth. Examples of debris include non-operational satellites, rocket bodies, and fragments generated from explosions, collisions, or faulty payload assembly.

Not visible in the next 10 days
Identifier
22316, 1993-003D
Orbit
GEO
Country
Flag of USUS
Related business
Manufacturer
UTC CSD
Mission
Orbus 6E) (Endeavour (OV-105))"
Bus & Motor
ORBUS 6, Unknown motor
Mass
~1,100 kg wet, ~1,100 kg dry
Launch date (UTC)
1993-01-13 (33 years ago)
Launch vehicle
Unknown
Launch site
Air Force Eastern Test Range (AFETR)
Object type
Payload
Rocket body
Debris
Shape & HBR
Cyl, Unknown HBR
Radar Cross Section
8.086 m², Large (>1 m²)

Expand to show TLE details & history
Last TLE update: 1 day ago

TLE from 1 day ago
0 IUS R/B(2)
1 22316U 93003D   25259.84439706 -.00000376  00000-0  00000-0 0  9990
2 22316  12.0204 346.0432 0068627 120.2555 307.8925  1.00112577124450
Epoch: 2025-09-16T20:15Z
TLE epoch observation values (Epoch: 2025-09-16T20:15:55.905Z)
Latitude
11.09416°
Longitude
113.09927°
Altitude
35,654.875 km
Speed
3.086 km/s
True Right ascension
03h 32m 26s
True Declination
11° 04' 59"
Sunlit
Object was in daylight at epoch
Visualization orbit readout
Latitude
Unknown
Longitude
Unknown
Altitude
Unknown
Speed
Unknown
Apparent Right ascension
Unknown
Apparent Declination
Unknown
Sunlit
N/A
Visualization observer readout
Local Sidereal Time
17:34:30
Azimuth
Unknown
Elevation
Unknown
Doppler factor
Unknown
Orbital elements
Apogee altitude
36,121.965 km
Perigee altitude
35,542.61 km
Semi-major axis
42,210.424 km
Eccentricity
0.00686
Inclination
12.0204°
RAAN
346.0432°
Arg. of periapsis
120.2555°
True anomaly
307.26862°
Mean anomaly
307.8925°
Eccentric anomaly
307.58089°
Mean motion
0.25027 °/min
Orbital period
1,438.43 mins
BSTAR
0
Loading maneuver chart data...
Computing Atmospheric mass density...
Loading historical data...
Loading historical data...
Loading historical data...
Loading historical data...
Loading historical data...
Loading historical data...
Loading historical data...
Other satellites on launch #3 in the year 1993 (1993-01-13 UTC)

Documentation

Showing up to 5 results
|